Location: Hac?musa Deresi
(39.1694°N, 32.2508°E)
Time: 23:01:47
(UTC+00:00)

ATLAS 5 CENTAUR R/B - Pass Details

Date: 22 April 2026
Orbit: 361 x 1065 km, 63.3° (Epoch: 9 May)

Event Time Altitude Azimuth Distance (km) Brightness Sun altitude
Rises 19:28:51 0° 342° (NNW) 2,678 5.8 -28.9°
Reaches altitude 10° 19:31:28 10° 2° (N) 1,910 4.6 -29.2°
Enters shadow 19:33:28 17° 29° (NNE) 1,594 3.8 -29.5°
